Weather History for Oakland, MD

Change the Weather History Date:

Thursday, December 8, 2011

  Actual Average (KMGW) Record (KMGW)
Temperature  
Mean Temperature 24 °F 37 °F  
Max Temperature 26 °F 44 °F 74 °F (1966)
Min Temperature 21 °F 29 °F 10 °F (1977)
Degree Days  
Heating Degree Days 42 28  
Month to date heating degree days 217  
Since 1 July heating degree days 1265  
Cooling Degree Days 0 0  
Month to date cooling degree days 0  
Year to date cooling degree days 814  
Moisture  
Dew Point 22 °F    
Average Humidity 97    
Maximum Humidity 100    
Minimum Humidity 74    
Precipitation  
Precipitation 0.00 in 0.10 in 1.53 in (1978)
Month to date precipitation 0.82  
Year to date precipitation 39.74  
Sea Level Pressure  
Sea Level Pressure 30.09 in    
Wind  
Wind Speed 11 mph (WSW)    
Max Wind Speed 18 mph    
Max Gust Speed 28 mph    
Visibility 8 miles    
Events      
T = Trace of Precipitation, MM = Missing Value Source: NWS Daily Summary

Daily Weather History Graph

Daily Weather History Graph

Search for Another Location

Airport:

Trip Planner

Search our weather history database for the weather conditions in past years. The results will help you decide how hot, cold, wet, or windy it might be!

Date:

Astronomy

Dec. 08, 2011 Rise Set
Actual Time 7:25 AM EST 4:53 PM EST
Civil Twilight 6:55 AM EST 5:23 PM EST
Nautical Twilight 6:21 AM EST 5:56 PM EST
Astronomical Twilight 5:48 AM EST 6:29 PM EST
Moon 3:31 PM EST (12/8) 5:35 AM EST (12/8)
Length of Visible Light 10h 28m
Length of Day
9h 28m
Waxing Gibbous, 97% of the Moon is Illuminated
Dec 8
Waxing Gibbous
Dec 10
Full
Dec 17
Last Quarter
Dec 24
New
Jan 1
First Quarter

Hourly Weather History & Observations

Time (EST) Temp. Windchill Dew Point Humidity Pressure Visibility Wind Dir Wind Speed Gust Speed Precip Events Conditions
12:00 AM 23.0 °F 11.7 °F 23.0 °F 100% 29.88 in 4.0 mi West 11.5 mph 23.0 mph N/A   Overcast
12:20 AM 23.0 °F 11.7 °F 23.0 °F 100% 29.90 in 7.0 mi West 11.5 mph 19.6 mph N/A   Overcast
12:40 AM 23.0 °F 10.6 °F 23.0 °F 100% 29.90 in 7.0 mi WNW 13.8 mph 23.0 mph N/A   Overcast
1:00 AM 21.2 °F 8.3 °F 21.2 °F 100% 29.90 in 7.0 mi West 13.8 mph 20.7 mph N/A   Mostly Cloudy
1:20 AM 21.2 °F 8.9 °F 21.2 °F 100% 29.90 in 7.0 mi West 12.7 mph 24.2 mph N/A   Mostly Cloudy
1:35 AM 21.2 °F 9.5 °F 21.2 °F 100% 29.90 in 5.0 mi WNW 11.5 mph 25.3 mph N/A   Overcast
1:55 AM 21.2 °F 9.5 °F 21.2 °F 100% 29.90 in 10.0 mi West 11.5 mph 19.6 mph N/A   Overcast
2:15 AM 21.2 °F 8.3 °F 21.2 °F 100% 29.92 in 7.0 mi West 13.8 mph 20.7 mph N/A   Overcast
2:35 AM 21.2 °F 8.3 °F 21.2 °F 100% 29.92 in 7.0 mi West 13.8 mph 21.9 mph N/A   Overcast
2:55 AM 23.0 °F 10.1 °F 23.0 °F 100% 29.93 in 10.0 mi West 15.0 mph 20.7 mph N/A   Overcast
3:15 AM 21.2 °F 9.5 °F 21.2 °F 100% 29.93 in 7.0 mi West 11.5 mph 24.2 mph N/A   Overcast
3:35 AM 21.2 °F 6.8 °F 21.2 °F 100% 29.93 in 7.0 mi West 17.3 mph 27.6 mph N/A   Overcast
3:50 AM 21.2 °F 8.9 °F 21.2 °F 100% 29.94 in 7.0 mi West 12.7 mph 20.7 mph N/A   Overcast
4:10 AM 21.2 °F 7.3 °F 21.2 °F 100% 29.95 in 5.0 mi West 16.1 mph 25.3 mph N/A   Overcast
4:30 AM 21.2 °F 8.9 °F 21.2 °F 100% 29.97 in 7.0 mi West 12.7 mph 23.0 mph N/A   Overcast
4:50 AM 21.2 °F 7.3 °F 21.2 °F 100% 29.98 in 7.0 mi West 16.1 mph 23.0 mph N/A   Overcast
5:10 AM 21.2 °F 6.4 °F 21.2 °F 100% 29.98 in 7.0 mi West 18.4 mph 24.2 mph N/A   Mostly Cloudy
5:50 AM 21.2 °F 7.8 °F 21.2 °F 100% 30.00 in 7.0 mi West 15.0 mph 25.3 mph N/A   Overcast
6:05 AM 21.2 °F 8.3 °F 21.2 °F 100% 30.01 in 5.0 mi West 13.8 mph 24.2 mph N/A   Overcast
6:25 AM 21.2 °F 8.3 °F 21.2 °F 100% 30.03 in 7.0 mi West 13.8 mph 19.6 mph N/A   Overcast
7:25 AM 21.2 °F 9.5 °F 21.2 °F 100% 30.09 in 4.0 mi West 11.5 mph 21.9 mph N/A   Overcast
7:45 AM 21.2 °F 10.9 °F 21.2 °F 100% 30.10 in 5.0 mi West 9.2 mph 24.2 mph N/A   Overcast
8:05 AM 21.2 °F 10.9 °F 21.2 °F 100% 30.12 in 5.0 mi West 9.2 mph - N/A   Overcast
8:20 AM 21.2 °F 10.1 °F 21.2 °F 100% 30.11 in 4.0 mi West 10.4 mph 16.1 mph N/A   Overcast
8:40 AM 21.2 °F 12.6 °F 21.2 °F 100% 30.10 in 4.0 mi WNW 6.9 mph - N/A   Overcast
9:00 AM 21.2 °F 11.7 °F 21.2 °F 100% 30.10 in 5.0 mi WNW 8.1 mph - N/A   Overcast
9:20 AM 21.2 °F 13.6 °F 21.2 °F 100% 30.09 in 4.0 mi West 5.8 mph - N/A   Overcast
9:40 AM 21.2 °F 11.7 °F 21.2 °F 100% 30.09 in 5.0 mi West 8.1 mph 17.3 mph N/A   Overcast
10:00 AM 23.0 °F 13.9 °F 23.0 °F 100% 30.12 in 7.0 mi West 8.1 mph 17.3 mph N/A   Overcast
10:20 AM 23.0 °F 14.7 °F 23.0 °F 100% 30.13 in 5.0 mi West 6.9 mph 18.4 mph N/A   Overcast
10:35 AM 23.0 °F 13.1 °F 23.0 °F 100% 30.14 in 5.0 mi WSW 9.2 mph - N/A   Overcast
10:55 AM 23.0 °F 13.9 °F 23.0 °F 100% 30.15 in 5.0 mi WSW 8.1 mph - N/A   Overcast
11:15 AM 23.0 °F 15.8 °F 23.0 °F 100% 30.16 in 2.5 mi WSW 5.8 mph - N/A   Overcast
11:35 AM 23.0 °F 15.8 °F 23.0 °F 100% 30.17 in 7.0 mi West 5.8 mph - N/A   Overcast
11:55 AM 23.0 °F 13.9 °F 23.0 °F 100% 30.17 in 5.0 mi WSW 8.1 mph - N/A   Overcast
12:15 PM 23.0 °F 11.7 °F 23.0 °F 100% 30.17 in 7.0 mi WSW 11.5 mph - N/A   Overcast
12:35 PM 23.0 °F 13.9 °F 23.0 °F 100% 30.17 in 7.0 mi WSW 8.1 mph - N/A   Overcast
12:50 PM 23.0 °F 14.7 °F 23.0 °F 100% 30.16 in 10.0 mi WSW 6.9 mph - N/A   Overcast
1:10 PM 23.0 °F 14.7 °F 23.0 °F 100% 30.16 in 10.0 mi WSW 6.9 mph 17.3 mph N/A   Overcast
1:30 PM 23.0 °F 14.7 °F 23.0 °F 100% 30.15 in 10.0 mi West 6.9 mph - N/A   Overcast
2:10 PM 24.8 °F 16.9 °F 23.0 °F 93% 30.14 in 10.0 mi West 6.9 mph - N/A   Overcast
2:30 PM 24.8 °F 19.1 °F 23.0 °F 93% 30.15 in 10.0 mi West 4.6 mph - N/A   Overcast
2:50 PM 24.8 °F 17.9 °F 24.8 °F 100% 30.15 in 10.0 mi WSW 5.8 mph - N/A   Overcast
3:05 PM 24.8 °F 16.9 °F 24.8 °F 100% 30.15 in 10.0 mi West 6.9 mph - N/A   Overcast
4:05 PM 24.8 °F 17.9 °F 24.8 °F 100% 30.17 in 10.0 mi SW 5.8 mph - N/A   Overcast
4:25 PM 23.0 °F 17.0 °F 23.0 °F 100% 30.18 in 10.0 mi SW 4.6 mph - N/A   Mostly Cloudy
4:45 PM 23.0 °F 13.1 °F 23.0 °F 100% 30.18 in 5.0 mi SSW 9.2 mph - N/A   Mostly Cloudy
5:05 PM 23.0 °F 13.9 °F 23.0 °F 100% 30.19 in 5.0 mi SSW 8.1 mph - N/A   Mostly Cloudy
5:20 PM 23.0 °F 13.9 °F 23.0 °F 100% 30.19 in 10.0 mi South 8.1 mph - N/A   Scattered Clouds
5:40 PM 23.0 °F 13.9 °F 23.0 °F 100% 30.19 in 10.0 mi SSW 8.1 mph - N/A   Clear
6:00 PM 23.0 °F 13.1 °F 23.0 °F 100% 30.19 in 10.0 mi SSW 9.2 mph - N/A   Clear
6:20 PM 24.8 °F 15.3 °F 23.0 °F 93% 30.19 in 10.0 mi SSW 9.2 mph - N/A   Clear
7:00 PM 26.6 °F 16.2 °F 23.0 °F 86% 30.19 in 10.0 mi SSW 11.5 mph - N/A   Clear
7:20 PM 26.6 °F 15.2 °F 23.0 °F 86% 30.19 in 10.0 mi SSW 13.8 mph - N/A   Clear
7:35 PM 26.6 °F 17.5 °F 23.0 °F 86% 30.19 in 10.0 mi SSW 9.2 mph - N/A   Clear
7:55 PM 26.6 °F 18.2 °F 23.0 °F 86% 30.19 in 10.0 mi SSW 8.1 mph - N/A   Clear
8:15 PM 26.6 °F 20.0 °F 23.0 °F 86% 30.19 in 10.0 mi SSW 5.8 mph - N/A   Clear
8:35 PM 26.6 °F 18.2 °F 23.0 °F 86% 30.20 in 10.0 mi SSW 8.1 mph - N/A   Clear
8:55 PM 26.6 °F 19.1 °F 21.2 °F 80% 30.19 in 10.0 mi SSW 6.9 mph - N/A   Clear
9:15 PM 26.6 °F 19.1 °F 21.2 °F 80% 30.19 in 10.0 mi SW 6.9 mph - N/A   Clear
9:35 PM 26.6 °F 19.1 °F 19.4 °F 74% 30.19 in 10.0 mi SW 6.9 mph - N/A   Clear
9:50 PM 26.6 °F 19.1 °F 19.4 °F 74% 30.19 in 10.0 mi SW 6.9 mph - N/A   Clear
10:10 PM 26.6 °F 19.1 °F 19.4 °F 74% 30.19 in 10.0 mi SW 6.9 mph - N/A   Clear
10:30 PM 26.6 °F 19.1 °F 19.4 °F 74% 30.19 in 10.0 mi SW 6.9 mph - N/A   Clear
10:50 PM 26.6 °F 18.2 °F 19.4 °F 74% 30.19 in 10.0 mi SW 8.1 mph - N/A   Clear
11:10 PM 26.6 °F 18.2 °F 19.4 °F 74% 30.19 in 10.0 mi SSW 8.1 mph - N/A   Scattered Clouds
11:30 PM 26.6 °F 18.2 °F 19.4 °F 74% 30.19 in 10.0 mi SSW 8.1 mph - N/A   Mostly Cloudy
11:50 PM 26.6 °F 18.2 °F 21.2 °F 80% 30.19 in 10.0 mi South 8.1 mph - N/A   Mostly Cloudy